Index of /20260426/WXO-DD/model_rdps/10km/12/003
Name Last modified Size Description
Parent Directory -
20260426T12Z_MSC_RDPS_AbsoluteVorticity_IsbL-0250_RLatLon0.09_PT003H.grib2 2026-04-26 14:42 602K
20260426T12Z_MSC_RDPS_AbsoluteVorticity_IsbL-0500_RLatLon0.09_PT003H.grib2 2026-04-26 14:42 551K
20260426T12Z_MSC_RDPS_AbsoluteVorticity_IsbL-0700_RLatLon0.09_PT003H.grib2 2026-04-26 14:42 754K
20260426T12Z_MSC_RDPS_AbsoluteVorticity_IsbL-0850_RLatLon0.09_PT003H.grib2 2026-04-26 14:42 778K
20260426T12Z_MSC_RDPS_AirTemp_AGL-120m_RLatLon0.09_PT003H.grib2 2026-04-26 14:42 399K
20260426T12Z_MSC_RDPS_AirTemp_AGL-2m_RLatLon0.09_PT003H.grib2 2026-04-26 14:42 635K
20260426T12Z_MSC_RDPS_AirTemp_AGL-40m_RLatLon0.09_PT003H.grib2 2026-04-26 14:42 409K
20260426T12Z_MSC_RDPS_AirTemp_AGL-80m_RLatLon0.09_PT003H.grib2 2026-04-26 14:42 404K
20260426T12Z_MSC_RDPS_AirTemp_IsbL-0001_RLatLon0.09_PT003H.grib2 2026-04-26 14:42 272K
20260426T12Z_MSC_RDPS_AirTemp_IsbL-0005_RLatLon0.09_PT003H.grib2 2026-04-26 14:42 322K
20260426T12Z_MSC_RDPS_AirTemp_IsbL-0010_RLatLon0.09_PT003H.grib2 2026-04-26 14:42 290K
20260426T12Z_MSC_RDPS_AirTemp_IsbL-0020_RLatLon0.09_PT003H.grib2 2026-04-26 14:42 307K
20260426T12Z_MSC_RDPS_AirTemp_IsbL-0030_RLatLon0.09_PT003H.grib2 2026-04-26 14:42 324K
20260426T12Z_MSC_RDPS_AirTemp_IsbL-0050_RLatLon0.09_PT003H.grib2 2026-04-26 14:42 308K
20260426T12Z_MSC_RDPS_AirTemp_IsbL-0100_RLatLon0.09_PT003H.grib2 2026-04-26 14:42 406K
20260426T12Z_MSC_RDPS_AirTemp_IsbL-0150_RLatLon0.09_PT003H.grib2 2026-04-26 14:42 406K
20260426T12Z_MSC_RDPS_AirTemp_IsbL-0175_RLatLon0.09_PT003H.grib2 2026-04-26 14:42 400K
20260426T12Z_MSC_RDPS_AirTemp_IsbL-0200_RLatLon0.09_PT003H.grib2 2026-04-26 14:42 408K
20260426T12Z_MSC_RDPS_AirTemp_IsbL-0225_RLatLon0.09_PT003H.grib2 2026-04-26 14:42 411K
20260426T12Z_MSC_RDPS_AirTemp_IsbL-0250_RLatLon0.09_PT003H.grib2 2026-04-26 14:42 418K
20260426T12Z_MSC_RDPS_AirTemp_IsbL-0275_RLatLon0.09_PT003H.grib2 2026-04-26 14:42 398K
20260426T12Z_MSC_RDPS_AirTemp_IsbL-0300_RLatLon0.09_PT003H.grib2 2026-04-26 14:42 406K
20260426T12Z_MSC_RDPS_AirTemp_IsbL-0350_RLatLon0.09_PT003H.grib2 2026-04-26 14:42 418K
20260426T12Z_MSC_RDPS_AirTemp_IsbL-0400_RLatLon0.09_PT003H.grib2 2026-04-26 14:42 418K
20260426T12Z_MSC_RDPS_AirTemp_IsbL-0450_RLatLon0.09_PT003H.grib2 2026-04-26 14:42 390K
20260426T12Z_MSC_RDPS_AirTemp_IsbL-0500_RLatLon0.09_PT003H.grib2 2026-04-26 14:42 402K
20260426T12Z_MSC_RDPS_AirTemp_IsbL-0550_RLatLon0.09_PT003H.grib2 2026-04-26 14:42 421K
20260426T12Z_MSC_RDPS_AirTemp_IsbL-0600_RLatLon0.09_PT003H.grib2 2026-04-26 14:42 440K
20260426T12Z_MSC_RDPS_AirTemp_IsbL-0650_RLatLon0.09_PT003H.grib2 2026-04-26 14:42 455K
20260426T12Z_MSC_RDPS_AirTemp_IsbL-0700_RLatLon0.09_PT003H.grib2 2026-04-26 14:42 479K
20260426T12Z_MSC_RDPS_AirTemp_IsbL-0750_RLatLon0.09_PT003H.grib2 2026-04-26 14:42 408K
20260426T12Z_MSC_RDPS_AirTemp_IsbL-0800_RLatLon0.09_PT003H.grib2 2026-04-26 14:42 455K
20260426T12Z_MSC_RDPS_AirTemp_IsbL-0850_RLatLon0.09_PT003H.grib2 2026-04-26 14:42 503K
20260426T12Z_MSC_RDPS_AirTemp_IsbL-0875_RLatLon0.09_PT003H.grib2 2026-04-26 14:42 517K
20260426T12Z_MSC_RDPS_AirTemp_IsbL-0900_RLatLon0.09_PT003H.grib2 2026-04-26 14:42 525K
20260426T12Z_MSC_RDPS_AirTemp_IsbL-0925_RLatLon0.09_PT003H.grib2 2026-04-26 14:42 524K
20260426T12Z_MSC_RDPS_AirTemp_IsbL-0950_RLatLon0.09_PT003H.grib2 2026-04-26 14:42 528K
20260426T12Z_MSC_RDPS_AirTemp_IsbL-0970_RLatLon0.09_PT003H.grib2 2026-04-26 14:42 527K
20260426T12Z_MSC_RDPS_AirTemp_IsbL-0985_RLatLon0.09_PT003H.grib2 2026-04-26 14:42 520K
20260426T12Z_MSC_RDPS_AirTemp_IsbL-1000_RLatLon0.09_PT003H.grib2 2026-04-26 14:42 500K
20260426T12Z_MSC_RDPS_AirTemp_IsbL-1015_RLatLon0.09_PT003H.grib2 2026-04-26 14:42 495K
20260426T12Z_MSC_RDPS_Albedo_Sfc_RLatLon0.09_PT003H.grib2 2026-04-26 14:42 165K
20260426T12Z_MSC_RDPS_CAPE_Sfc_RLatLon0.09_PT003H.grib2 2026-04-26 14:42 1.8M
20260426T12Z_MSC_RDPS_CIN_Sfc_RLatLon0.09_PT003H.grib2 2026-04-26 14:42 1.1M
20260426T12Z_MSC_RDPS_CloudWater_EAtm_RLatLon0.09_PT003H.grib2 2026-04-26 14:42 213K
20260426T12Z_MSC_RDPS_ConvectivePrecip-Accum_Sfc_RLatLon0.09_PT003H.grib2 2026-04-26 14:42 393K
20260426T12Z_MSC_RDPS_DewPointDepression_AGL-2m_RLatLon0.09_PT003H.grib2 2026-04-26 14:42 413K
20260426T12Z_MSC_RDPS_DewPointDepression_IsbL-0001_RLatLon0.09_PT003H.grib2 2026-04-26 14:42 193
20260426T12Z_MSC_RDPS_DewPointDepression_IsbL-0005_RLatLon0.09_PT003H.grib2 2026-04-26 14:42 193
20260426T12Z_MSC_RDPS_DewPointDepression_IsbL-0010_RLatLon0.09_PT003H.grib2 2026-04-26 14:42 193
20260426T12Z_MSC_RDPS_DewPointDepression_IsbL-0020_RLatLon0.09_PT003H.grib2 2026-04-26 14:42 193
20260426T12Z_MSC_RDPS_DewPointDepression_IsbL-0030_RLatLon0.09_PT003H.grib2 2026-04-26 14:42 193
20260426T12Z_MSC_RDPS_DewPointDepression_IsbL-0050_RLatLon0.09_PT003H.grib2 2026-04-26 14:42 90K
20260426T12Z_MSC_RDPS_DewPointDepression_IsbL-0100_RLatLon0.09_PT003H.grib2 2026-04-26 14:42 122K
20260426T12Z_MSC_RDPS_DewPointDepression_IsbL-0150_RLatLon0.09_PT003H.grib2 2026-04-26 14:42 144K
20260426T12Z_MSC_RDPS_DewPointDepression_IsbL-0175_RLatLon0.09_PT003H.grib2 2026-04-26 14:42 181K
20260426T12Z_MSC_RDPS_DewPointDepression_IsbL-0200_RLatLon0.09_PT003H.grib2 2026-04-26 14:42 222K
20260426T12Z_MSC_RDPS_DewPointDepression_IsbL-0225_RLatLon0.09_PT003H.grib2 2026-04-26 14:42 259K
20260426T12Z_MSC_RDPS_DewPointDepression_IsbL-0250_RLatLon0.09_PT003H.grib2 2026-04-26 14:42 301K
20260426T12Z_MSC_RDPS_DewPointDepression_IsbL-0275_RLatLon0.09_PT003H.grib2 2026-04-26 14:42 313K
20260426T12Z_MSC_RDPS_DewPointDepression_IsbL-0300_RLatLon0.09_PT003H.grib2 2026-04-26 14:42 330K
20260426T12Z_MSC_RDPS_DewPointDepression_IsbL-0350_RLatLon0.09_PT003H.grib2 2026-04-26 14:42 331K
20260426T12Z_MSC_RDPS_DewPointDepression_IsbL-0400_RLatLon0.09_PT003H.grib2 2026-04-26 14:42 338K
20260426T12Z_MSC_RDPS_DewPointDepression_IsbL-0450_RLatLon0.09_PT003H.grib2 2026-04-26 14:42 344K
20260426T12Z_MSC_RDPS_DewPointDepression_IsbL-0500_RLatLon0.09_PT003H.grib2 2026-04-26 14:42 351K
20260426T12Z_MSC_RDPS_DewPointDepression_IsbL-0550_RLatLon0.09_PT003H.grib2 2026-04-26 14:42 366K
20260426T12Z_MSC_RDPS_DewPointDepression_IsbL-0600_RLatLon0.09_PT003H.grib2 2026-04-26 14:42 372K
20260426T12Z_MSC_RDPS_DewPointDepression_IsbL-0650_RLatLon0.09_PT003H.grib2 2026-04-26 14:42 374K
20260426T12Z_MSC_RDPS_DewPointDepression_IsbL-0700_RLatLon0.09_PT003H.grib2 2026-04-26 14:42 386K
20260426T12Z_MSC_RDPS_DewPointDepression_IsbL-0750_RLatLon0.09_PT003H.grib2 2026-04-26 14:42 410K
20260426T12Z_MSC_RDPS_DewPointDepression_IsbL-0800_RLatLon0.09_PT003H.grib2 2026-04-26 14:42 443K
20260426T12Z_MSC_RDPS_DewPointDepression_IsbL-0850_RLatLon0.09_PT003H.grib2 2026-04-26 14:42 468K
20260426T12Z_MSC_RDPS_DewPointDepression_IsbL-0875_RLatLon0.09_PT003H.grib2 2026-04-26 14:42 468K
20260426T12Z_MSC_RDPS_DewPointDepression_IsbL-0900_RLatLon0.09_PT003H.grib2 2026-04-26 14:42 462K
20260426T12Z_MSC_RDPS_DewPointDepression_IsbL-0925_RLatLon0.09_PT003H.grib2 2026-04-26 14:42 453K
20260426T12Z_MSC_RDPS_DewPointDepression_IsbL-0950_RLatLon0.09_PT003H.grib2 2026-04-26 14:42 446K
20260426T12Z_MSC_RDPS_DewPointDepression_IsbL-0970_RLatLon0.09_PT003H.grib2 2026-04-26 14:42 441K
20260426T12Z_MSC_RDPS_DewPointDepression_IsbL-0985_RLatLon0.09_PT003H.grib2 2026-04-26 14:42 438K
20260426T12Z_MSC_RDPS_DewPointDepression_IsbL-1000_RLatLon0.09_PT003H.grib2 2026-04-26 14:42 432K
20260426T12Z_MSC_RDPS_DewPointDepression_IsbL-1015_RLatLon0.09_PT003H.grib2 2026-04-26 14:42 424K
20260426T12Z_MSC_RDPS_DewPoint_AGL-2m_RLatLon0.09_PT003H.grib2 2026-04-26 14:42 401K
20260426T12Z_MSC_RDPS_DownwardLongwaveRadiationFlux-Accum_Sfc_RLatLon0.09_PT003H.grib2 2026-04-26 14:42 590K
20260426T12Z_MSC_RDPS_DownwardShortwaveRadiationFlux-Accum_NTAtm_RLatLon0.09_PT003H.grib2 2026-04-26 14:42 91K
20260426T12Z_MSC_RDPS_DownwardShortwaveRadiationFlux-Accum_Sfc_RLatLon0.09_PT003H.grib2 2026-04-26 14:42 385K
20260426T12Z_MSC_RDPS_FreezingRain-Accum1h_Sfc_RLatLon0.09_PT003H.grib2 2026-04-26 14:42 32K
20260426T12Z_MSC_RDPS_FreezingRain-Accum3h_Sfc_RLatLon0.09_PT003H.grib2 2026-04-26 14:42 46K
20260426T12Z_MSC_RDPS_FreezingRain-Accum_Sfc_RLatLon0.09_PT003H.grib2 2026-04-26 14:42 56K
20260426T12Z_MSC_RDPS_GeopotentialHeight_IsbL-0001_RLatLon0.09_PT003H.grib2 2026-04-26 14:42 275K
20260426T12Z_MSC_RDPS_GeopotentialHeight_IsbL-0005_RLatLon0.09_PT003H.grib2 2026-04-26 14:42 336K
20260426T12Z_MSC_RDPS_GeopotentialHeight_IsbL-0010_RLatLon0.09_PT003H.grib2 2026-04-26 14:42 337K
20260426T12Z_MSC_RDPS_GeopotentialHeight_IsbL-0020_RLatLon0.09_PT003H.grib2 2026-04-26 14:42 303K
20260426T12Z_MSC_RDPS_GeopotentialHeight_IsbL-0030_RLatLon0.09_PT003H.grib2 2026-04-26 14:42 400K
20260426T12Z_MSC_RDPS_GeopotentialHeight_IsbL-0050_RLatLon0.09_PT003H.grib2 2026-04-26 14:42 305K
20260426T12Z_MSC_RDPS_GeopotentialHeight_IsbL-0100_RLatLon0.09_PT003H.grib2 2026-04-26 14:42 284K
20260426T12Z_MSC_RDPS_GeopotentialHeight_IsbL-0150_RLatLon0.09_PT003H.grib2 2026-04-26 14:42 226K
20260426T12Z_MSC_RDPS_GeopotentialHeight_IsbL-0175_RLatLon0.09_PT003H.grib2 2026-04-26 14:42 228K
20260426T12Z_MSC_RDPS_GeopotentialHeight_IsbL-0200_RLatLon0.09_PT003H.grib2 2026-04-26 14:42 231K
20260426T12Z_MSC_RDPS_GeopotentialHeight_IsbL-0225_RLatLon0.09_PT003H.grib2 2026-04-26 14:42 264K
20260426T12Z_MSC_RDPS_GeopotentialHeight_IsbL-0250_RLatLon0.09_PT003H.grib2 2026-04-26 14:42 266K
20260426T12Z_MSC_RDPS_GeopotentialHeight_IsbL-0275_RLatLon0.09_PT003H.grib2 2026-04-26 14:42 234K
20260426T12Z_MSC_RDPS_GeopotentialHeight_IsbL-0300_RLatLon0.09_PT003H.grib2 2026-04-26 14:42 234K
20260426T12Z_MSC_RDPS_GeopotentialHeight_IsbL-0350_RLatLon0.09_PT003H.grib2 2026-04-26 14:42 230K
20260426T12Z_MSC_RDPS_GeopotentialHeight_IsbL-0400_RLatLon0.09_PT003H.grib2 2026-04-26 14:42 227K
20260426T12Z_MSC_RDPS_GeopotentialHeight_IsbL-0450_RLatLon0.09_PT003H.grib2 2026-04-26 14:42 295K
20260426T12Z_MSC_RDPS_GeopotentialHeight_IsbL-0500_RLatLon0.09_PT003H.grib2 2026-04-26 14:42 290K
20260426T12Z_MSC_RDPS_GeopotentialHeight_IsbL-0550_RLatLon0.09_PT003H.grib2 2026-04-26 14:42 287K
20260426T12Z_MSC_RDPS_GeopotentialHeight_IsbL-0600_RLatLon0.09_PT003H.grib2 2026-04-26 14:42 284K
20260426T12Z_MSC_RDPS_GeopotentialHeight_IsbL-0650_RLatLon0.09_PT003H.grib2 2026-04-26 14:42 281K
20260426T12Z_MSC_RDPS_GeopotentialHeight_IsbL-0700_RLatLon0.09_PT003H.grib2 2026-04-26 14:42 279K
20260426T12Z_MSC_RDPS_GeopotentialHeight_IsbL-0750_RLatLon0.09_PT003H.grib2 2026-04-26 14:42 278K
20260426T12Z_MSC_RDPS_GeopotentialHeight_IsbL-0800_RLatLon0.09_PT003H.grib2 2026-04-26 14:42 259K
20260426T12Z_MSC_RDPS_GeopotentialHeight_IsbL-0850_RLatLon0.09_PT003H.grib2 2026-04-26 14:42 267K
20260426T12Z_MSC_RDPS_GeopotentialHeight_IsbL-0875_RLatLon0.09_PT003H.grib2 2026-04-26 14:42 270K
20260426T12Z_MSC_RDPS_GeopotentialHeight_IsbL-0900_RLatLon0.09_PT003H.grib2 2026-04-26 14:42 274K
20260426T12Z_MSC_RDPS_GeopotentialHeight_IsbL-0925_RLatLon0.09_PT003H.grib2 2026-04-26 14:42 276K
20260426T12Z_MSC_RDPS_GeopotentialHeight_IsbL-0950_RLatLon0.09_PT003H.grib2 2026-04-26 14:42 280K
20260426T12Z_MSC_RDPS_GeopotentialHeight_IsbL-0970_RLatLon0.09_PT003H.grib2 2026-04-26 14:42 311K
20260426T12Z_MSC_RDPS_GeopotentialHeight_IsbL-0985_RLatLon0.09_PT003H.grib2 2026-04-26 14:42 318K
20260426T12Z_MSC_RDPS_GeopotentialHeight_IsbL-1000_RLatLon0.09_PT003H.grib2 2026-04-26 14:42 328K
20260426T12Z_MSC_RDPS_GeopotentialHeight_IsbL-1015_RLatLon0.09_PT003H.grib2 2026-04-26 14:42 340K
20260426T12Z_MSC_RDPS_Humidex_Sfc_RLatLon0.09_PT003H.grib2 2026-04-26 14:42 2.4M
20260426T12Z_MSC_RDPS_IcePellets-Accum1h_Sfc_RLatLon0.09_PT003H.grib2 2026-04-26 14:42 11K
20260426T12Z_MSC_RDPS_IcePellets-Accum3h_Sfc_RLatLon0.09_PT003H.grib2 2026-04-26 14:42 13K
20260426T12Z_MSC_RDPS_IcePellets-Accum_Sfc_RLatLon0.09_PT003H.grib2 2026-04-26 14:42 13K
20260426T12Z_MSC_RDPS_KIndex_Sfc_RLatLon0.09_PT003H.grib2 2026-04-26 14:42 2.3M
20260426T12Z_MSC_RDPS_LatentHeatNetFlux_Sfc_RLatLon0.09_PT003H.grib2 2026-04-26 14:42 373K
20260426T12Z_MSC_RDPS_LiftedIndex-MU-VT_IsbL-0500_RLatLon0.09_PT003H.grib2 2026-04-26 14:42 2.4M
20260426T12Z_MSC_RDPS_NetLongwaveRadiationFlux-Accum_Sfc_RLatLon0.09_PT003H.grib2 2026-04-26 14:42 603K
20260426T12Z_MSC_RDPS_NetShortwaveRadiationFlux-Accum_Sfc_RLatLon0.09_PT003H.grib2 2026-04-26 14:42 374K
20260426T12Z_MSC_RDPS_PlanetaryBoundaryLayerHeight_Sfc_RLatLon0.09_PT003H.grib2 2026-04-26 14:42 1.2M
20260426T12Z_MSC_RDPS_Precip-Accum1h_Sfc_RLatLon0.09_PT003H.grib2 2026-04-26 14:42 1.2M
20260426T12Z_MSC_RDPS_Precip-Accum3h_Sfc_RLatLon0.09_PT003H.grib2 2026-04-26 14:42 1.4M
20260426T12Z_MSC_RDPS_Precip-Accum_Sfc_RLatLon0.09_PT003H.grib2 2026-04-26 14:42 1.4M
20260426T12Z_MSC_RDPS_PrecipRate_Sfc_RLatLon0.09_PT003H.grib2 2026-04-26 14:42 175K
20260426T12Z_MSC_RDPS_PrecipType-Instant_Sfc_RLatLon0.09_PT003H.grib2 2026-04-26 14:42 571K
20260426T12Z_MSC_RDPS_Pressure-Trend3h_Sfc_RLatLon0.09_PT003H.grib2 2026-04-26 14:42 1.2M
20260426T12Z_MSC_RDPS_Pressure_MSL_RLatLon0.09_PT003H.grib2 2026-04-26 14:42 238K
20260426T12Z_MSC_RDPS_Pressure_PVU-1.5_RLatLon0.09_PT003H.grib2 2026-04-26 14:42 2.4M
20260426T12Z_MSC_RDPS_Pressure_PVU-1_RLatLon0.09_PT003H.grib2 2026-04-26 14:42 2.4M
20260426T12Z_MSC_RDPS_Pressure_PVU-2_RLatLon0.09_PT003H.grib2 2026-04-26 14:42 2.4M
20260426T12Z_MSC_RDPS_Pressure_Sfc_RLatLon0.09_PT003H.grib2 2026-04-26 14:42 499K
20260426T12Z_MSC_RDPS_RadiativeTemp_Sfc_RLatLon0.09_PT003H.grib2 2026-04-26 14:42 314K
20260426T12Z_MSC_RDPS_Rain-Accum1h_Sfc_RLatLon0.09_PT003H.grib2 2026-04-26 14:42 589K
20260426T12Z_MSC_RDPS_Rain-Accum3h_Sfc_RLatLon0.09_PT003H.grib2 2026-04-26 14:42 674K
20260426T12Z_MSC_RDPS_Rain-Accum_Sfc_RLatLon0.09_PT003H.grib2 2026-04-26 14:42 950K
20260426T12Z_MSC_RDPS_RelativeHumidity_AGL-2m_RLatLon0.09_PT003H.grib2 2026-04-26 14:42 1.0M
20260426T12Z_MSC_RDPS_RelativeHumidity_IsbL-0010_RLatLon0.09_PT003H.grib2 2026-04-26 14:42 631K
20260426T12Z_MSC_RDPS_RelativeHumidity_IsbL-0020_RLatLon0.09_PT003H.grib2 2026-04-26 14:42 655K
20260426T12Z_MSC_RDPS_RelativeHumidity_IsbL-0030_RLatLon0.09_PT003H.grib2 2026-04-26 14:42 536K
20260426T12Z_MSC_RDPS_RelativeHumidity_IsbL-0050_RLatLon0.09_PT003H.grib2 2026-04-26 14:42 320K
20260426T12Z_MSC_RDPS_RelativeHumidity_IsbL-0100_RLatLon0.09_PT003H.grib2 2026-04-26 14:42 365K
20260426T12Z_MSC_RDPS_RelativeHumidity_IsbL-0150_RLatLon0.09_PT003H.grib2 2026-04-26 14:42 389K
20260426T12Z_MSC_RDPS_RelativeHumidity_IsbL-0175_RLatLon0.09_PT003H.grib2 2026-04-26 14:42 465K
20260426T12Z_MSC_RDPS_RelativeHumidity_IsbL-0200_RLatLon0.09_PT003H.grib2 2026-04-26 14:42 547K
20260426T12Z_MSC_RDPS_RelativeHumidity_IsbL-0225_RLatLon0.09_PT003H.grib2 2026-04-26 14:42 617K
20260426T12Z_MSC_RDPS_RelativeHumidity_IsbL-0250_RLatLon0.09_PT003H.grib2 2026-04-26 14:42 696K
20260426T12Z_MSC_RDPS_RelativeHumidity_IsbL-0275_RLatLon0.09_PT003H.grib2 2026-04-26 14:42 724K
20260426T12Z_MSC_RDPS_RelativeHumidity_IsbL-0300_RLatLon0.09_PT003H.grib2 2026-04-26 14:42 765K
20260426T12Z_MSC_RDPS_RelativeHumidity_IsbL-0350_RLatLon0.09_PT003H.grib2 2026-04-26 14:42 778K
20260426T12Z_MSC_RDPS_RelativeHumidity_IsbL-0400_RLatLon0.09_PT003H.grib2 2026-04-26 14:42 785K
20260426T12Z_MSC_RDPS_RelativeHumidity_IsbL-0450_RLatLon0.09_PT003H.grib2 2026-04-26 14:42 790K
20260426T12Z_MSC_RDPS_RelativeHumidity_IsbL-0500_RLatLon0.09_PT003H.grib2 2026-04-26 14:42 809K
20260426T12Z_MSC_RDPS_RelativeHumidity_IsbL-0550_RLatLon0.09_PT003H.grib2 2026-04-26 14:42 829K
20260426T12Z_MSC_RDPS_RelativeHumidity_IsbL-0600_RLatLon0.09_PT003H.grib2 2026-04-26 14:42 850K
20260426T12Z_MSC_RDPS_RelativeHumidity_IsbL-0650_RLatLon0.09_PT003H.grib2 2026-04-26 14:42 862K
20260426T12Z_MSC_RDPS_RelativeHumidity_IsbL-0700_RLatLon0.09_PT003H.grib2 2026-04-26 14:42 889K
20260426T12Z_MSC_RDPS_RelativeHumidity_IsbL-0750_RLatLon0.09_PT003H.grib2 2026-04-26 14:42 935K
20260426T12Z_MSC_RDPS_RelativeHumidity_IsbL-0800_RLatLon0.09_PT003H.grib2 2026-04-26 14:42 1.0M
20260426T12Z_MSC_RDPS_RelativeHumidity_IsbL-0850_RLatLon0.09_PT003H.grib2 2026-04-26 14:42 1.0M
20260426T12Z_MSC_RDPS_RelativeHumidity_IsbL-0875_RLatLon0.09_PT003H.grib2 2026-04-26 14:42 1.1M
20260426T12Z_MSC_RDPS_RelativeHumidity_IsbL-0900_RLatLon0.09_PT003H.grib2 2026-04-26 14:42 1.1M
20260426T12Z_MSC_RDPS_RelativeHumidity_IsbL-0925_RLatLon0.09_PT003H.grib2 2026-04-26 14:42 1.1M
20260426T12Z_MSC_RDPS_RelativeHumidity_IsbL-0950_RLatLon0.09_PT003H.grib2 2026-04-26 14:42 1.1M
20260426T12Z_MSC_RDPS_RelativeHumidity_IsbL-0970_RLatLon0.09_PT003H.grib2 2026-04-26 14:42 1.1M
20260426T12Z_MSC_RDPS_RelativeHumidity_IsbL-0985_RLatLon0.09_PT003H.grib2 2026-04-26 14:42 1.0M
20260426T12Z_MSC_RDPS_RelativeHumidity_IsbL-1000_RLatLon0.09_PT003H.grib2 2026-04-26 14:42 1.0M
20260426T12Z_MSC_RDPS_RelativeHumidity_IsbL-1015_RLatLon0.09_PT003H.grib2 2026-04-26 14:42 1.0M
20260426T12Z_MSC_RDPS_Runoff-Accum_Sfc_RLatLon0.09_PT003H.grib2 2026-04-26 14:42 22K
20260426T12Z_MSC_RDPS_SWEATIndex_Sfc_RLatLon0.09_PT003H.grib2 2026-04-26 14:42 2.4M
20260426T12Z_MSC_RDPS_SeeingIndex_EAtm_RLatLon0.09_PT003H.grib2 2026-04-26 14:42 1.0M
20260426T12Z_MSC_RDPS_SensibleHeatNetFlux_Sfc_RLatLon0.09_PT003H.grib2 2026-04-26 14:42 353K
20260426T12Z_MSC_RDPS_ShowalterIndex_IsbL-0500_RLatLon0.09_PT003H.grib2 2026-04-26 14:42 2.6M
20260426T12Z_MSC_RDPS_SkyTransparencyIndex_EAtm_RLatLon0.09_PT003H.grib2 2026-04-26 14:42 721K
20260426T12Z_MSC_RDPS_Snow-Accum1h_Sfc_RLatLon0.09_PT003H.grib2 2026-04-26 14:42 481K
20260426T12Z_MSC_RDPS_Snow-Accum3h_Sfc_RLatLon0.09_PT003H.grib2 2026-04-26 14:42 438K
20260426T12Z_MSC_RDPS_Snow-Accum_Sfc_RLatLon0.09_PT003H.grib2 2026-04-26 14:42 637K
20260426T12Z_MSC_RDPS_SnowDensity_Sfc_RLatLon0.09_PT003H.grib2 2026-04-26 14:42 179K
20260426T12Z_MSC_RDPS_SnowDepth_Sfc_RLatLon0.09_PT003H.grib2 2026-04-26 14:42 719K
20260426T12Z_MSC_RDPS_SoilTemp_DBS-0to10cm_RLatLon0.09_PT003H.grib2 2026-04-26 14:42 188K
20260426T12Z_MSC_RDPS_SoilTemp_Sfc_RLatLon0.09_PT003H.grib2 2026-04-26 14:42 277K
20260426T12Z_MSC_RDPS_SoilVolumetricIceContent_Sfc_RLatLon0.09_PT003H.grib2 2026-04-26 14:42 170K
20260426T12Z_MSC_RDPS_SoilVolumetricWaterContent_DBS-0to10cm_RLatLon0.09_PT003H.grib2 2026-04-26 14:42 256K
20260426T12Z_MSC_RDPS_SoilVolumetricWaterContent_DBS-0to1cm_RLatLon0.09_PT003H.grib2 2026-04-26 14:42 333K
20260426T12Z_MSC_RDPS_SpecificHumidity_AGL-120m_RLatLon0.09_PT003H.grib2 2026-04-26 14:42 489K
20260426T12Z_MSC_RDPS_SpecificHumidity_AGL-2m_RLatLon0.09_PT003H.grib2 2026-04-26 14:42 654K
20260426T12Z_MSC_RDPS_SpecificHumidity_AGL-40m_RLatLon0.09_PT003H.grib2 2026-04-26 14:42 492K
20260426T12Z_MSC_RDPS_SpecificHumidity_AGL-80m_RLatLon0.09_PT003H.grib2 2026-04-26 14:42 490K
20260426T12Z_MSC_RDPS_SpecificHumidity_IsbL-0001_RLatLon0.09_PT003H.grib2 2026-04-26 14:42 339K
20260426T12Z_MSC_RDPS_SpecificHumidity_IsbL-0005_RLatLon0.09_PT003H.grib2 2026-04-26 14:42 351K
20260426T12Z_MSC_RDPS_SpecificHumidity_IsbL-0010_RLatLon0.09_PT003H.grib2 2026-04-26 14:42 392K
20260426T12Z_MSC_RDPS_SpecificHumidity_IsbL-0020_RLatLon0.09_PT003H.grib2 2026-04-26 14:42 385K
20260426T12Z_MSC_RDPS_SpecificHumidity_IsbL-0030_RLatLon0.09_PT003H.grib2 2026-04-26 14:42 478K
20260426T12Z_MSC_RDPS_SpecificHumidity_IsbL-0050_RLatLon0.09_PT003H.grib2 2026-04-26 14:42 471K
20260426T12Z_MSC_RDPS_SpecificHumidity_IsbL-0100_RLatLon0.09_PT003H.grib2 2026-04-26 14:42 409K
20260426T12Z_MSC_RDPS_SpecificHumidity_IsbL-0150_RLatLon0.09_PT003H.grib2 2026-04-26 14:42 433K
20260426T12Z_MSC_RDPS_SpecificHumidity_IsbL-0175_RLatLon0.09_PT003H.grib2 2026-04-26 14:42 530K
20260426T12Z_MSC_RDPS_SpecificHumidity_IsbL-0200_RLatLon0.09_PT003H.grib2 2026-04-26 14:42 548K
20260426T12Z_MSC_RDPS_SpecificHumidity_IsbL-0225_RLatLon0.09_PT003H.grib2 2026-04-26 14:42 554K
20260426T12Z_MSC_RDPS_SpecificHumidity_IsbL-0250_RLatLon0.09_PT003H.grib2 2026-04-26 14:42 561K
20260426T12Z_MSC_RDPS_SpecificHumidity_IsbL-0275_RLatLon0.09_PT003H.grib2 2026-04-26 14:42 478K
20260426T12Z_MSC_RDPS_SpecificHumidity_IsbL-0300_RLatLon0.09_PT003H.grib2 2026-04-26 14:42 548K
20260426T12Z_MSC_RDPS_SpecificHumidity_IsbL-0350_RLatLon0.09_PT003H.grib2 2026-04-26 14:42 533K
20260426T12Z_MSC_RDPS_SpecificHumidity_IsbL-0400_RLatLon0.09_PT003H.grib2 2026-04-26 14:42 509K
20260426T12Z_MSC_RDPS_SpecificHumidity_IsbL-0450_RLatLon0.09_PT003H.grib2 2026-04-26 14:42 558K
20260426T12Z_MSC_RDPS_SpecificHumidity_IsbL-0500_RLatLon0.09_PT003H.grib2 2026-04-26 14:42 496K
20260426T12Z_MSC_RDPS_SpecificHumidity_IsbL-0550_RLatLon0.09_PT003H.grib2 2026-04-26 14:42 551K
20260426T12Z_MSC_RDPS_SpecificHumidity_IsbL-0600_RLatLon0.09_PT003H.grib2 2026-04-26 14:42 618K
20260426T12Z_MSC_RDPS_SpecificHumidity_IsbL-0650_RLatLon0.09_PT003H.grib2 2026-04-26 14:42 533K
20260426T12Z_MSC_RDPS_SpecificHumidity_IsbL-0700_RLatLon0.09_PT003H.grib2 2026-04-26 14:42 577K
20260426T12Z_MSC_RDPS_SpecificHumidity_IsbL-0750_RLatLon0.09_PT003H.grib2 2026-04-26 14:42 636K
20260426T12Z_MSC_RDPS_SpecificHumidity_IsbL-0800_RLatLon0.09_PT003H.grib2 2026-04-26 14:42 720K
20260426T12Z_MSC_RDPS_SpecificHumidity_IsbL-0850_RLatLon0.09_PT003H.grib2 2026-04-26 14:42 795K
20260426T12Z_MSC_RDPS_SpecificHumidity_IsbL-0875_RLatLon0.09_PT003H.grib2 2026-04-26 14:42 818K
20260426T12Z_MSC_RDPS_SpecificHumidity_IsbL-0900_RLatLon0.09_PT003H.grib2 2026-04-26 14:42 830K
20260426T12Z_MSC_RDPS_SpecificHumidity_IsbL-0925_RLatLon0.09_PT003H.grib2 2026-04-26 14:42 833K
20260426T12Z_MSC_RDPS_SpecificHumidity_IsbL-0950_RLatLon0.09_PT003H.grib2 2026-04-26 14:42 690K
20260426T12Z_MSC_RDPS_SpecificHumidity_IsbL-0970_RLatLon0.09_PT003H.grib2 2026-04-26 14:42 684K
20260426T12Z_MSC_RDPS_SpecificHumidity_IsbL-0985_RLatLon0.09_PT003H.grib2 2026-04-26 14:42 680K
20260426T12Z_MSC_RDPS_SpecificHumidity_IsbL-1000_RLatLon0.09_PT003H.grib2 2026-04-26 14:42 672K
20260426T12Z_MSC_RDPS_SpecificHumidity_IsbL-1015_RLatLon0.09_PT003H.grib2 2026-04-26 14:42 664K
20260426T12Z_MSC_RDPS_SpecificHumidity_Sfc_RLatLon0.09_PT003H.grib2 2026-04-26 14:42 319K
20260426T12Z_MSC_RDPS_StormRelativeHelicity_EtaL-10000_RLatLon0.09_PT003H.grib2 2026-04-26 14:42 1.1M
20260426T12Z_MSC_RDPS_StormSeverityIndex_EtaL-10000_RLatLon0.09_PT003H.grib2 2026-04-26 14:42 1.2M
20260426T12Z_MSC_RDPS_Thickness_IsbL-0850to0700_RLatLon0.09_PT003H.grib2 2026-04-26 14:42 175K
20260426T12Z_MSC_RDPS_Thickness_IsbL-1000to0500_RLatLon0.09_PT003H.grib2 2026-04-26 14:42 203K
20260426T12Z_MSC_RDPS_Thickness_IsbL-1000to0850_RLatLon0.09_PT003H.grib2 2026-04-26 14:42 187K
20260426T12Z_MSC_RDPS_TotalCloudCover_Sfc_RLatLon0.09_PT003H.grib2 2026-04-26 14:42 674K
20260426T12Z_MSC_RDPS_TotalTotalsIndex_Sfc_RLatLon0.09_PT003H.grib2 2026-04-26 14:42 2.3M
20260426T12Z_MSC_RDPS_UVIndex-ClearSky_Sfc_RLatLon0.09_PT003H.grib2 2026-04-26 14:42 179K
20260426T12Z_MSC_RDPS_UVIndex_Sfc_RLatLon0.09_PT003H.grib2 2026-04-26 14:42 414K
20260426T12Z_MSC_RDPS_UpwardLongwaveRadiationFlux_NTAtm_RLatLon0.09_PT003H.grib2 2026-04-26 14:42 490K
20260426T12Z_MSC_RDPS_UpwardShortwaveRadiationFlux_NTAtm_RLatLon0.09_PT003H.grib2 2026-04-26 14:42 467K
20260426T12Z_MSC_RDPS_VerticalVelocity_IsbL-0250_RLatLon0.09_PT003H.grib2 2026-04-26 14:42 541K
20260426T12Z_MSC_RDPS_VerticalVelocity_IsbL-0500_RLatLon0.09_PT003H.grib2 2026-04-26 14:42 530K
20260426T12Z_MSC_RDPS_VerticalVelocity_IsbL-0700_RLatLon0.09_PT003H.grib2 2026-04-26 14:42 585K
20260426T12Z_MSC_RDPS_VerticalVelocity_IsbL-0850_RLatLon0.09_PT003H.grib2 2026-04-26 14:42 694K
20260426T12Z_MSC_RDPS_VerticalWindShear_EtaL-6500_RLatLon0.09_PT003H.grib2 2026-04-26 14:42 1.2M
20260426T12Z_MSC_RDPS_WindChill_Sfc_RLatLon0.09_PT003H.grib2 2026-04-26 14:42 1.2M
20260426T12Z_MSC_RDPS_WindDir_AGL-10m_RLatLon0.09_PT003H.grib2 2026-04-26 14:42 1.0M
20260426T12Z_MSC_RDPS_WindDir_AGL-120m_RLatLon0.09_PT003H.grib2 2026-04-26 14:42 627K
20260426T12Z_MSC_RDPS_WindDir_AGL-40m_RLatLon0.09_PT003H.grib2 2026-04-26 14:42 651K
20260426T12Z_MSC_RDPS_WindDir_AGL-80m_RLatLon0.09_PT003H.grib2 2026-04-26 14:42 637K
20260426T12Z_MSC_RDPS_WindDir_IsbL-0001_RLatLon0.09_PT003H.grib2 2026-04-26 14:42 284K
20260426T12Z_MSC_RDPS_WindDir_IsbL-0005_RLatLon0.09_PT003H.grib2 2026-04-26 14:42 352K
20260426T12Z_MSC_RDPS_WindDir_IsbL-0010_RLatLon0.09_PT003H.grib2 2026-04-26 14:42 369K
20260426T12Z_MSC_RDPS_WindDir_IsbL-0020_RLatLon0.09_PT003H.grib2 2026-04-26 14:42 391K
20260426T12Z_MSC_RDPS_WindDir_IsbL-0030_RLatLon0.09_PT003H.grib2 2026-04-26 14:42 405K
20260426T12Z_MSC_RDPS_WindDir_IsbL-0050_RLatLon0.09_PT003H.grib2 2026-04-26 14:42 433K
20260426T12Z_MSC_RDPS_WindDir_IsbL-0100_RLatLon0.09_PT003H.grib2 2026-04-26 14:42 411K
20260426T12Z_MSC_RDPS_WindDir_IsbL-0150_RLatLon0.09_PT003H.grib2 2026-04-26 14:42 416K
20260426T12Z_MSC_RDPS_WindDir_IsbL-0175_RLatLon0.09_PT003H.grib2 2026-04-26 14:42 433K
20260426T12Z_MSC_RDPS_WindDir_IsbL-0200_RLatLon0.09_PT003H.grib2 2026-04-26 14:42 440K
20260426T12Z_MSC_RDPS_WindDir_IsbL-0225_RLatLon0.09_PT003H.grib2 2026-04-26 14:42 442K
20260426T12Z_MSC_RDPS_WindDir_IsbL-0250_RLatLon0.09_PT003H.grib2 2026-04-26 14:42 448K
20260426T12Z_MSC_RDPS_WindDir_IsbL-0275_RLatLon0.09_PT003H.grib2 2026-04-26 14:42 470K
20260426T12Z_MSC_RDPS_WindDir_IsbL-0300_RLatLon0.09_PT003H.grib2 2026-04-26 14:42 472K
20260426T12Z_MSC_RDPS_WindDir_IsbL-0350_RLatLon0.09_PT003H.grib2 2026-04-26 14:42 492K
20260426T12Z_MSC_RDPS_WindDir_IsbL-0400_RLatLon0.09_PT003H.grib2 2026-04-26 14:42 503K
20260426T12Z_MSC_RDPS_WindDir_IsbL-0450_RLatLon0.09_PT003H.grib2 2026-04-26 14:42 512K
20260426T12Z_MSC_RDPS_WindDir_IsbL-0500_RLatLon0.09_PT003H.grib2 2026-04-26 14:42 530K
20260426T12Z_MSC_RDPS_WindDir_IsbL-0550_RLatLon0.09_PT003H.grib2 2026-04-26 14:42 550K
20260426T12Z_MSC_RDPS_WindDir_IsbL-0600_RLatLon0.09_PT003H.grib2 2026-04-26 14:42 581K
20260426T12Z_MSC_RDPS_WindDir_IsbL-0650_RLatLon0.09_PT003H.grib2 2026-04-26 14:42 631K
20260426T12Z_MSC_RDPS_WindDir_IsbL-0700_RLatLon0.09_PT003H.grib2 2026-04-26 14:42 679K
20260426T12Z_MSC_RDPS_WindDir_IsbL-0750_RLatLon0.09_PT003H.grib2 2026-04-26 14:42 736K
20260426T12Z_MSC_RDPS_WindDir_IsbL-0800_RLatLon0.09_PT003H.grib2 2026-04-26 14:42 812K
20260426T12Z_MSC_RDPS_WindDir_IsbL-0850_RLatLon0.09_PT003H.grib2 2026-04-26 14:42 885K
20260426T12Z_MSC_RDPS_WindDir_IsbL-0875_RLatLon0.09_PT003H.grib2 2026-04-26 14:42 909K
20260426T12Z_MSC_RDPS_WindDir_IsbL-0900_RLatLon0.09_PT003H.grib2 2026-04-26 14:42 922K
20260426T12Z_MSC_RDPS_WindDir_IsbL-0925_RLatLon0.09_PT003H.grib2 2026-04-26 14:42 926K
20260426T12Z_MSC_RDPS_WindDir_IsbL-0950_RLatLon0.09_PT003H.grib2 2026-04-26 14:42 924K
20260426T12Z_MSC_RDPS_WindDir_IsbL-0970_RLatLon0.09_PT003H.grib2 2026-04-26 14:42 928K
20260426T12Z_MSC_RDPS_WindDir_IsbL-0985_RLatLon0.09_PT003H.grib2 2026-04-26 14:42 943K
20260426T12Z_MSC_RDPS_WindDir_IsbL-1000_RLatLon0.09_PT003H.grib2 2026-04-26 14:42 961K
20260426T12Z_MSC_RDPS_WindDir_IsbL-1015_RLatLon0.09_PT003H.grib2 2026-04-26 14:42 1.0M
20260426T12Z_MSC_RDPS_WindGust-Max_AGL-10m_RLatLon0.09_PT003H.grib2 2026-04-26 14:42 1.0M
20260426T12Z_MSC_RDPS_WindGust-Min_AGL-10m_RLatLon0.09_PT003H.grib2 2026-04-26 14:42 971K
20260426T12Z_MSC_RDPS_WindGust_AGL-10m_RLatLon0.09_PT003H.grib2 2026-04-26 14:42 1.0M
20260426T12Z_MSC_RDPS_WindSpeed_AGL-10m_RLatLon0.09_PT003H.grib2 2026-04-26 14:42 847K
20260426T12Z_MSC_RDPS_WindSpeed_AGL-120m_RLatLon0.09_PT003H.grib2 2026-04-26 14:42 540K
20260426T12Z_MSC_RDPS_WindSpeed_AGL-40m_RLatLon0.09_PT003H.grib2 2026-04-26 14:42 543K
20260426T12Z_MSC_RDPS_WindSpeed_AGL-80m_RLatLon0.09_PT003H.grib2 2026-04-26 14:42 541K
20260426T12Z_MSC_RDPS_WindSpeed_IsbL-0001_RLatLon0.09_PT003H.grib2 2026-04-26 14:42 246K
20260426T12Z_MSC_RDPS_WindSpeed_IsbL-0005_RLatLon0.09_PT003H.grib2 2026-04-26 14:42 288K
20260426T12Z_MSC_RDPS_WindSpeed_IsbL-0010_RLatLon0.09_PT003H.grib2 2026-04-26 14:42 299K
20260426T12Z_MSC_RDPS_WindSpeed_IsbL-0020_RLatLon0.09_PT003H.grib2 2026-04-26 14:42 314K
20260426T12Z_MSC_RDPS_WindSpeed_IsbL-0030_RLatLon0.09_PT003H.grib2 2026-04-26 14:42 314K
20260426T12Z_MSC_RDPS_WindSpeed_IsbL-0050_RLatLon0.09_PT003H.grib2 2026-04-26 14:42 348K
20260426T12Z_MSC_RDPS_WindSpeed_IsbL-0100_RLatLon0.09_PT003H.grib2 2026-04-26 14:42 423K
20260426T12Z_MSC_RDPS_WindSpeed_IsbL-0150_RLatLon0.09_PT003H.grib2 2026-04-26 14:42 367K
20260426T12Z_MSC_RDPS_WindSpeed_IsbL-0175_RLatLon0.09_PT003H.grib2 2026-04-26 14:42 416K
20260426T12Z_MSC_RDPS_WindSpeed_IsbL-0200_RLatLon0.09_PT003H.grib2 2026-04-26 14:42 433K
20260426T12Z_MSC_RDPS_WindSpeed_IsbL-0225_RLatLon0.09_PT003H.grib2 2026-04-26 14:42 441K
20260426T12Z_MSC_RDPS_WindSpeed_IsbL-0250_RLatLon0.09_PT003H.grib2 2026-04-26 14:42 447K
20260426T12Z_MSC_RDPS_WindSpeed_IsbL-0275_RLatLon0.09_PT003H.grib2 2026-04-26 14:42 466K
20260426T12Z_MSC_RDPS_WindSpeed_IsbL-0300_RLatLon0.09_PT003H.grib2 2026-04-26 14:42 464K
20260426T12Z_MSC_RDPS_WindSpeed_IsbL-0350_RLatLon0.09_PT003H.grib2 2026-04-26 14:42 474K
20260426T12Z_MSC_RDPS_WindSpeed_IsbL-0400_RLatLon0.09_PT003H.grib2 2026-04-26 14:42 454K
20260426T12Z_MSC_RDPS_WindSpeed_IsbL-0450_RLatLon0.09_PT003H.grib2 2026-04-26 14:42 451K
20260426T12Z_MSC_RDPS_WindSpeed_IsbL-0500_RLatLon0.09_PT003H.grib2 2026-04-26 14:42 451K
20260426T12Z_MSC_RDPS_WindSpeed_IsbL-0550_RLatLon0.09_PT003H.grib2 2026-04-26 14:42 570K
20260426T12Z_MSC_RDPS_WindSpeed_IsbL-0600_RLatLon0.09_PT003H.grib2 2026-04-26 14:42 584K
20260426T12Z_MSC_RDPS_WindSpeed_IsbL-0650_RLatLon0.09_PT003H.grib2 2026-04-26 14:42 651K
20260426T12Z_MSC_RDPS_WindSpeed_IsbL-0700_RLatLon0.09_PT003H.grib2 2026-04-26 14:42 675K
20260426T12Z_MSC_RDPS_WindSpeed_IsbL-0750_RLatLon0.09_PT003H.grib2 2026-04-26 14:42 706K
20260426T12Z_MSC_RDPS_WindSpeed_IsbL-0800_RLatLon0.09_PT003H.grib2 2026-04-26 14:42 758K
20260426T12Z_MSC_RDPS_WindSpeed_IsbL-0850_RLatLon0.09_PT003H.grib2 2026-04-26 14:42 815K
20260426T12Z_MSC_RDPS_WindSpeed_IsbL-0875_RLatLon0.09_PT003H.grib2 2026-04-26 14:42 836K
20260426T12Z_MSC_RDPS_WindSpeed_IsbL-0900_RLatLon0.09_PT003H.grib2 2026-04-26 14:42 849K
20260426T12Z_MSC_RDPS_WindSpeed_IsbL-0925_RLatLon0.09_PT003H.grib2 2026-04-26 14:42 858K
20260426T12Z_MSC_RDPS_WindSpeed_IsbL-0950_RLatLon0.09_PT003H.grib2 2026-04-26 14:42 854K
20260426T12Z_MSC_RDPS_WindSpeed_IsbL-0970_RLatLon0.09_PT003H.grib2 2026-04-26 14:42 854K
20260426T12Z_MSC_RDPS_WindSpeed_IsbL-0985_RLatLon0.09_PT003H.grib2 2026-04-26 14:42 851K
20260426T12Z_MSC_RDPS_WindSpeed_IsbL-1000_RLatLon0.09_PT003H.grib2 2026-04-26 14:42 851K
20260426T12Z_MSC_RDPS_WindSpeed_IsbL-1015_RLatLon0.09_PT003H.grib2 2026-04-26 14:42 845K
20260426T12Z_MSC_RDPS_WindU_AGL-10m_RLatLon0.09_PT003H.grib2 2026-04-26 14:42 435K
20260426T12Z_MSC_RDPS_WindU_AGL-120m_RLatLon0.09_PT003H.grib2 2026-04-26 14:42 418K
20260426T12Z_MSC_RDPS_WindU_AGL-40m_RLatLon0.09_PT003H.grib2 2026-04-26 14:42 538K
20260426T12Z_MSC_RDPS_WindU_AGL-80m_RLatLon0.09_PT003H.grib2 2026-04-26 14:42 419K
20260426T12Z_MSC_RDPS_WindU_IsbL-0001_RLatLon0.09_PT003H.grib2 2026-04-26 14:42 264K
20260426T12Z_MSC_RDPS_WindU_IsbL-0005_RLatLon0.09_PT003H.grib2 2026-04-26 14:42 279K
20260426T12Z_MSC_RDPS_WindU_IsbL-0010_RLatLon0.09_PT003H.grib2 2026-04-26 14:42 332K
20260426T12Z_MSC_RDPS_WindU_IsbL-0020_RLatLon0.09_PT003H.grib2 2026-04-26 14:42 346K
20260426T12Z_MSC_RDPS_WindU_IsbL-0030_RLatLon0.09_PT003H.grib2 2026-04-26 14:42 346K
20260426T12Z_MSC_RDPS_WindU_IsbL-0050_RLatLon0.09_PT003H.grib2 2026-04-26 14:42 343K
20260426T12Z_MSC_RDPS_WindU_IsbL-0100_RLatLon0.09_PT003H.grib2 2026-04-26 14:42 325K
20260426T12Z_MSC_RDPS_WindU_IsbL-0150_RLatLon0.09_PT003H.grib2 2026-04-26 14:42 385K
20260426T12Z_MSC_RDPS_WindU_IsbL-0175_RLatLon0.09_PT003H.grib2 2026-04-26 14:42 411K
20260426T12Z_MSC_RDPS_WindU_IsbL-0200_RLatLon0.09_PT003H.grib2 2026-04-26 14:42 427K
20260426T12Z_MSC_RDPS_WindU_IsbL-0225_RLatLon0.09_PT003H.grib2 2026-04-26 14:42 336K
20260426T12Z_MSC_RDPS_WindU_IsbL-0250_RLatLon0.09_PT003H.grib2 2026-04-26 14:42 339K
20260426T12Z_MSC_RDPS_WindU_IsbL-0275_RLatLon0.09_PT003H.grib2 2026-04-26 14:42 354K
20260426T12Z_MSC_RDPS_WindU_IsbL-0300_RLatLon0.09_PT003H.grib2 2026-04-26 14:42 351K
20260426T12Z_MSC_RDPS_WindU_IsbL-0350_RLatLon0.09_PT003H.grib2 2026-04-26 14:42 462K
20260426T12Z_MSC_RDPS_WindU_IsbL-0400_RLatLon0.09_PT003H.grib2 2026-04-26 14:42 459K
20260426T12Z_MSC_RDPS_WindU_IsbL-0450_RLatLon0.09_PT003H.grib2 2026-04-26 14:42 458K
20260426T12Z_MSC_RDPS_WindU_IsbL-0500_RLatLon0.09_PT003H.grib2 2026-04-26 14:42 458K
20260426T12Z_MSC_RDPS_WindU_IsbL-0550_RLatLon0.09_PT003H.grib2 2026-04-26 14:42 462K
20260426T12Z_MSC_RDPS_WindU_IsbL-0600_RLatLon0.09_PT003H.grib2 2026-04-26 14:42 456K
20260426T12Z_MSC_RDPS_WindU_IsbL-0650_RLatLon0.09_PT003H.grib2 2026-04-26 14:42 479K
20260426T12Z_MSC_RDPS_WindU_IsbL-0700_RLatLon0.09_PT003H.grib2 2026-04-26 14:42 501K
20260426T12Z_MSC_RDPS_WindU_IsbL-0750_RLatLon0.09_PT003H.grib2 2026-04-26 14:42 528K
20260426T12Z_MSC_RDPS_WindU_IsbL-0800_RLatLon0.09_PT003H.grib2 2026-04-26 14:42 573K
20260426T12Z_MSC_RDPS_WindU_IsbL-0850_RLatLon0.09_PT003H.grib2 2026-04-26 14:42 623K
20260426T12Z_MSC_RDPS_WindU_IsbL-0875_RLatLon0.09_PT003H.grib2 2026-04-26 14:42 641K
20260426T12Z_MSC_RDPS_WindU_IsbL-0900_RLatLon0.09_PT003H.grib2 2026-04-26 14:42 650K
20260426T12Z_MSC_RDPS_WindU_IsbL-0925_RLatLon0.09_PT003H.grib2 2026-04-26 14:42 655K
20260426T12Z_MSC_RDPS_WindU_IsbL-0950_RLatLon0.09_PT003H.grib2 2026-04-26 14:42 649K
20260426T12Z_MSC_RDPS_WindU_IsbL-0970_RLatLon0.09_PT003H.grib2 2026-04-26 14:42 647K
20260426T12Z_MSC_RDPS_WindU_IsbL-0985_RLatLon0.09_PT003H.grib2 2026-04-26 14:42 787K
20260426T12Z_MSC_RDPS_WindU_IsbL-1000_RLatLon0.09_PT003H.grib2 2026-04-26 14:42 788K
20260426T12Z_MSC_RDPS_WindU_IsbL-1015_RLatLon0.09_PT003H.grib2 2026-04-26 14:42 785K
20260426T12Z_MSC_RDPS_WindV_AGL-10m_RLatLon0.09_PT003H.grib2 2026-04-26 14:42 434K
20260426T12Z_MSC_RDPS_WindV_AGL-120m_RLatLon0.09_PT003H.grib2 2026-04-26 14:42 419K
20260426T12Z_MSC_RDPS_WindV_AGL-40m_RLatLon0.09_PT003H.grib2 2026-04-26 14:42 420K
20260426T12Z_MSC_RDPS_WindV_AGL-80m_RLatLon0.09_PT003H.grib2 2026-04-26 14:42 419K
20260426T12Z_MSC_RDPS_WindV_IsbL-0001_RLatLon0.09_PT003H.grib2 2026-04-26 14:42 263K
20260426T12Z_MSC_RDPS_WindV_IsbL-0005_RLatLon0.09_PT003H.grib2 2026-04-26 14:42 322K
20260426T12Z_MSC_RDPS_WindV_IsbL-0010_RLatLon0.09_PT003H.grib2 2026-04-26 14:42 289K
20260426T12Z_MSC_RDPS_WindV_IsbL-0020_RLatLon0.09_PT003H.grib2 2026-04-26 14:42 346K
20260426T12Z_MSC_RDPS_WindV_IsbL-0030_RLatLon0.09_PT003H.grib2 2026-04-26 14:42 345K
20260426T12Z_MSC_RDPS_WindV_IsbL-0050_RLatLon0.09_PT003H.grib2 2026-04-26 14:42 372K
20260426T12Z_MSC_RDPS_WindV_IsbL-0100_RLatLon0.09_PT003H.grib2 2026-04-26 14:42 320K
20260426T12Z_MSC_RDPS_WindV_IsbL-0150_RLatLon0.09_PT003H.grib2 2026-04-26 14:42 382K
20260426T12Z_MSC_RDPS_WindV_IsbL-0175_RLatLon0.09_PT003H.grib2 2026-04-26 14:42 408K
20260426T12Z_MSC_RDPS_WindV_IsbL-0200_RLatLon0.09_PT003H.grib2 2026-04-26 14:42 424K
20260426T12Z_MSC_RDPS_WindV_IsbL-0225_RLatLon0.09_PT003H.grib2 2026-04-26 14:42 334K
20260426T12Z_MSC_RDPS_WindV_IsbL-0250_RLatLon0.09_PT003H.grib2 2026-04-26 14:42 337K
20260426T12Z_MSC_RDPS_WindV_IsbL-0275_RLatLon0.09_PT003H.grib2 2026-04-26 14:42 352K
20260426T12Z_MSC_RDPS_WindV_IsbL-0300_RLatLon0.09_PT003H.grib2 2026-04-26 14:42 374K
20260426T12Z_MSC_RDPS_WindV_IsbL-0350_RLatLon0.09_PT003H.grib2 2026-04-26 14:42 355K
20260426T12Z_MSC_RDPS_WindV_IsbL-0400_RLatLon0.09_PT003H.grib2 2026-04-26 14:42 354K
20260426T12Z_MSC_RDPS_WindV_IsbL-0450_RLatLon0.09_PT003H.grib2 2026-04-26 14:42 352K
20260426T12Z_MSC_RDPS_WindV_IsbL-0500_RLatLon0.09_PT003H.grib2 2026-04-26 14:42 453K
20260426T12Z_MSC_RDPS_WindV_IsbL-0550_RLatLon0.09_PT003H.grib2 2026-04-26 14:42 457K
20260426T12Z_MSC_RDPS_WindV_IsbL-0600_RLatLon0.09_PT003H.grib2 2026-04-26 14:42 469K
20260426T12Z_MSC_RDPS_WindV_IsbL-0650_RLatLon0.09_PT003H.grib2 2026-04-26 14:42 490K
20260426T12Z_MSC_RDPS_WindV_IsbL-0700_RLatLon0.09_PT003H.grib2 2026-04-26 14:42 510K
20260426T12Z_MSC_RDPS_WindV_IsbL-0750_RLatLon0.09_PT003H.grib2 2026-04-26 14:42 523K
20260426T12Z_MSC_RDPS_WindV_IsbL-0800_RLatLon0.09_PT003H.grib2 2026-04-26 14:42 567K
20260426T12Z_MSC_RDPS_WindV_IsbL-0850_RLatLon0.09_PT003H.grib2 2026-04-26 14:42 617K
20260426T12Z_MSC_RDPS_WindV_IsbL-0875_RLatLon0.09_PT003H.grib2 2026-04-26 14:42 635K
20260426T12Z_MSC_RDPS_WindV_IsbL-0900_RLatLon0.09_PT003H.grib2 2026-04-26 14:42 646K
20260426T12Z_MSC_RDPS_WindV_IsbL-0925_RLatLon0.09_PT003H.grib2 2026-04-26 14:42 658K
20260426T12Z_MSC_RDPS_WindV_IsbL-0950_RLatLon0.09_PT003H.grib2 2026-04-26 14:42 647K
20260426T12Z_MSC_RDPS_WindV_IsbL-0970_RLatLon0.09_PT003H.grib2 2026-04-26 14:42 647K
20260426T12Z_MSC_RDPS_WindV_IsbL-0985_RLatLon0.09_PT003H.grib2 2026-04-26 14:42 649K
20260426T12Z_MSC_RDPS_WindV_IsbL-1000_RLatLon0.09_PT003H.grib2 2026-04-26 14:42 649K
20260426T12Z_MSC_RDPS_WindV_IsbL-1015_RLatLon0.09_PT003H.grib2 2026-04-26 14:42 782K